Lær å fly hos oss!

Oslo Flyveklubb har i mange år utdannet flygere til privatflygersetifikat PPL(A). Skolen har godkjenning for å drive utdanning til teoriundervisning til PPL(A), privatflygersertifikat PPL (A) og mørkeflyging.

Gi bort en flytur i gave

På en introduksjonstur vil kandidaten være med på forberedelser til, og gjennomføring av en flytur på en times varighet med en av våre instruktører.

Hvor vi holder til?

Flyplassen ligger i Lillestrøm 10 minutter med tog fra Oslo. Følg storgata fra Lillestrøms sentrum så vill man se plassen på venstre side.
Metar/TAF Gardermoen:

ENGM 241520Z 20013KT CAVOK 04/M02 Q1008 NOSIG

TAF ENGM 241100Z 2412/2512 18012KT 9999 FEW030 SCT070 BECMG 2415/2418 VRB05KT PROB30 2500/2505 0800 FZFG VV002 BECMG 2503/2505 01010KT